Notices

Please take our survey and provide feedback: https://eccc.sondage-survey.ca/f/LanguageSelection.aspx?s=442ca660-fcf1-47c0-95a9-59707d6fd709

Please note that the IDF dataset is available through this link: Intensity-Duration-Frequency (IDF) Files .

Hourly Data Report for December 28, 2004

SHERBROOKE A
QUEBEC

45°26'00.000" N
71°41'00.000" W
241.40 m
7028124
71610
YSC

Download Data

Hourly Data (December 2004)
Hourly Data Report for December 28, 2004
TIME
LST
Temp Definition
°C
Dew Point Definition
°C
Rel Hum Definition
%
Precip. Amount Definition
mm

Wind Dir Definition
10's deg

Wind Spd Definition
km/h
Visibility Definition
km
Stn Press Definition
kPa
Hmdx Definition


Wind Chill Definition


Weather Definition


00:00 -17.3 -21.6 69   23 11 15.0 99.82   -24  
01:00 -17.4 -21.0 73   21 7 8.0 99.81   -23 Snow
02:00 -17.1 -20.0 78   22 9 11.3 99.79   -23  
03:00 -16.7 -19.3 80   20 7 4.8 99.78   -22 Snow
04:00 -16.0 -18.3 82   23 7 3.7 99.83   -21 Snow
05:00 -15.1 -18.0 78   26 9 9.7 99.79   -21  
06:00 -14.7 -17.8 77   25 11 12.9 99.83   -21  
07:00 -14.6 -17.8 77   25 9 9.7 99.83   -20  
08:00 -15.1 -17.8 80   23 6 19.3 99.86   -19 Mostly Cloudy
09:00 -14.2 -16.9 80   23 7 12.9 99.89   -19 Snow Showers
10:00 -12.5 -15.5 78   24 11 12.9 99.84   -19 Snow Showers
11:00 -11.4 -14.7 77   23 11 6.4 99.75   -17 Snow
12:00 -10.3 -13.7 76   21 13 4.8 99.66   -17 Snow
13:00 -9.1 -11.8 81   21 11 4.8 99.54   -15 Snow
14:00 -7.7 -11.1 77   21 15 16.1 99.47   -14 Cloudy
15:00 -7.2 -11.0 74   19 11 19.3 99.33   -12 Mostly Cloudy
16:00 -8.1 -11.9 74   19 11 19.3 99.26   -13 Mainly Clear
17:00 -8.8 -12.6 74   18 15 19.3 99.20   -15 Mostly Cloudy
18:00 -8.3 -12.1 74   18 7 15.0 99.11   -12  
19:00 -7.8 -12.1 71   19 9 15.0 98.95   -12  
20:00 -8.1 -12.4 71   19 9 15.0 98.82   -13  
21:00 -7.1 -11.2 72   19 7 15.0 98.75   -11  
22:00 -6.2 -10.5 72   19 13 15.0 98.62   -12  
23:00 -5.6 -10.2 70   21 17 15.0 98.52   -12  

Notes on Data Quality.

Legend

  • E = Estimated
  • M = Missing
  • NA = Not Available*
  • [empty] = Indicates an unobserved value
Date modified: